Weather History for Montrose, CO

Change the Weather History Date:

Tuesday, March 25, 2014

  Actual Average Record
Temperature  
Mean Temperature 49 °F 44 °F  
Max Temperature 68 °F 57 °F 76 °F (2012)
Min Temperature 29 °F 30 °F 14 °F (2013)
Degree Days  
Heating Degree Days 16 21  
Month to date heating degree days 559 616  
Since 1 July heating degree days 5291 5331  
Cooling Degree Days 0 0  
Month to date cooling degree days 0 0  
Year to date cooling degree days 0 0  
Moisture  
Dew Point 12 °F    
Average Humidity 28    
Maximum Humidity 49    
Minimum Humidity 7    
Precipitation  
Precipitation 0.00 in 0.03 in 0.05 in (2005)
Month to date precipitation 0.57 0.80  
Year to date precipitation 1.62 2.03  
Sea Level Pressure  
Sea Level Pressure 29.95 in    
Wind  
Wind Speed 7 mph (SSE)    
Max Wind Speed 15 mph    
Max Gust Speed 23 mph    
Visibility 10 miles    
Events      
T = Trace of Precipitation, MM = Missing Value Source: NWS Daily Summary

Daily Weather History Graph

Daily Weather History Graph

Search for Another Location

Airport:

Trip Planner

Search our weather history database for the weather conditions in past years. The results will help you decide how hot, cold, wet, or windy it might be!

Date:

Astronomy

Mar. 25, 2014 Rise Set
Actual Time 7:07 AM MDT 7:28 PM MDT
Civil Twilight 6:40 AM MDT 7:54 PM MDT
Nautical Twilight 6:09 AM MDT 8:26 PM MDT
Astronomical Twilight 5:37 AM MDT 8:57 PM MDT
Moon 3:27 AM MDT (3/25) 2:05 PM MDT (3/25)
Length of Visible Light 13h 14m
Length of Day
12h 21m
Waning Crescent, 31% of the Moon is Illuminated
Mar 25
Waning Crescent
Mar 30
New
Apr 7
First Quarter
Apr 15
Full
Apr 22
Last Quarter

Hourly Weather History & Observations

Time (MDT) Temp. Windchill Dew Point Humidity Pressure Visibility Wind Dir Wind Speed Gust Speed Precip Events Conditions
12:53 AM 37.0 °F 29.3 °F 15.1 °F 41% 30.13 in 10.0 mi SE 11.5 mph - N/A   Clear
1:53 AM 37.9 °F 30.9 °F 12.9 °F 36% 30.12 in 10.0 mi SE 10.4 mph - N/A   Clear
2:53 AM 36.0 °F 29.0 °F 14.0 °F 41% 30.12 in 10.0 mi SE 9.2 mph - N/A   Clear
3:53 AM 32.0 °F 26.4 °F 15.1 °F 50% 30.12 in 10.0 mi South 5.8 mph - N/A   Clear
4:53 AM 30.0 °F 22.4 °F 14.0 °F 51% 30.13 in 10.0 mi SSE 8.1 mph - N/A   Clear
5:53 AM 30.0 °F 23.2 °F 14.0 °F 51% 30.12 in 10.0 mi SE 6.9 mph - N/A   Clear
6:53 AM 30.0 °F 21.7 °F 14.0 °F 51% 30.13 in 10.0 mi SE 9.2 mph - N/A   Clear
7:53 AM 30.9 °F 25.2 °F 14.0 °F 50% 30.14 in 10.0 mi SE 5.8 mph - N/A   Clear
8:53 AM 41.0 °F 39.0 °F 12.9 °F 32% 30.12 in 10.0 mi South 3.5 mph - N/A   Clear
9:53 AM 50.0 °F - 12.0 °F 22% 30.09 in 10.0 mi NNE 9.2 mph - N/A   Clear
10:53 AM 53.1 °F - 16.0 °F 23% 30.05 in 10.0 mi WNW 6.9 mph - N/A   Clear
11:53 AM 57.0 °F - 14.0 °F 18% 30.00 in 10.0 mi Variable 6.9 mph - N/A   Clear
12:53 PM 59.0 °F - 12.9 °F 16% 29.96 in 10.0 mi Calm Calm - N/A   Clear
1:53 PM 63.0 °F - 12.0 °F 14% 29.90 in 10.0 mi Variable 3.5 mph - N/A   Clear
2:53 PM 66.0 °F - 10.0 °F 11% 29.85 in 10.0 mi North 5.8 mph - N/A   Clear
3:53 PM 66.9 °F - 8.1 °F 10% 29.82 in 10.0 mi WNW 6.9 mph - N/A   Clear
4:53 PM 68.0 °F - 1.0 °F 7% 29.79 in 10.0 mi NW 8.1 mph - N/A   Clear
5:53 PM 66.9 °F - 6.1 °F 9% 29.76 in 10.0 mi West 9.2 mph - N/A   Clear
6:53 PM 64.0 °F - 1.9 °F 8% 29.75 in 10.0 mi West 11.5 mph - N/A   Clear
7:53 PM 57.0 °F - 6.1 °F 13% 29.76 in 10.0 mi WNW 5.8 mph - N/A   Clear
8:53 PM 48.9 °F - 12.0 °F 23% 29.77 in 10.0 mi ESE 9.2 mph - N/A   Clear
9:53 PM 46.0 °F 41.4 °F 12.0 °F 25% 29.75 in 10.0 mi SE 9.2 mph - N/A   Clear
10:53 PM 44.1 °F 38.6 °F 12.0 °F 27% 29.73 in 10.0 mi SE 10.4 mph - N/A   Clear
11:53 PM 42.1 °F 37.7 °F 14.0 °F 32% 29.72 in 10.0 mi SSE 6.9 mph - N/A   Clear